Observations for Trim Market St
| Time | AQI | Temp °C | Hum % | Pres Pa | CO μg/m³ | H₂S μg/m³ | NO μg/m³ | NO₂ μg/m³ | O₃ μg/m³ | SO₂ μg/m³ | PM1 μg/m³ | PM2.5 μg/m³ | PM10 μg/m³ |
|---|---|---|---|---|---|---|---|---|---|---|---|---|---|
| Monday 13 July 2026 | |||||||||||||
| 17:12 | 1 | 30.2 | 32 | 66,064 | 0 | 5.49 | 0 | 0 | 40.36 | 0 | 2.14 | 5.41 | 5.95 |
| 17:09 | 1 | 30.9 | 31 | 66,092 | 0 | 0.42 | 0 | 1.65 | 41.31 | 0 | 1.43 | 4.91 | 5.4 |
| 17:08 | 1 | 31.1 | 30 | 66,111 | 0 | 2.98 | 0 | 0 | 35.5 | 0 | 1.43 | 4.92 | 5.41 |
| 17:07 | 1 | 31.3 | 30 | 66,135 | 0 | 0 | 0 | 0.48 | 34.05 | 0 | 2.14 | 5.47 | 6.01 |
| 17:03 | 1 | 31.9 | 30 | 66,141 | 0 | 0 | 0 | 1.16 | 32.24 | 0 | 1.43 | 4.94 | 5.44 |
| 16:54 | 1 | 32.7 | 30 | 66,221 | 0 | 0 | 0 | 1.49 | 40.53 | 0 | 1.43 | 4.42 | 4.86 |
| 16:53 | 1 | 32.8 | 29 | 66,252 | 0 | 0 | 0 | 2.1 | 34.23 | 0 | 1.43 | 4.43 | 4.88 |
| 16:52 | 1 | 32.9 | 29 | 66,264 | 0 | 0 | 0 | 0.47 | 36.93 | 0 | 2.14 | 5.52 | 6.07 |
| 16:51 | 1 | 33 | 29 | 66,284 | 0 | 0 | 0 | 0 | 34.08 | 0 | 0.71 | 4.98 | 5.47 |
| 16:50 | 1 | 33 | 29 | 66,280 | 0 | 0 | 0 | 1.36 | 28.38 | 0 | 2.14 | 4.98 | 5.48 |
| 16:49 | 1 | 33.1 | 29 | 66,297 | 0 | 0 | 0 | 4.72 | 27.08 | 0 | 2.14 | 6.06 | 6.67 |
| 16:48 | 1 | 33.1 | 29 | 66,292 | 0 | 0 | 0 | 0 | 36.5 | 0 | 1.43 | 4.43 | 4.88 |
| 16:47 | 1 | 33.1 | 29 | 66,311 | 0 | 0 | 0 | 1.62 | 36.14 | 0 | 1.43 | 4.98 | 5.47 |
| 16:46 | 1 | 33.1 | 29 | 66,303 | 0 | 0 | 0 | 0 | 27.76 | 0 | 1.43 | 5.52 | 6.07 |
| 16:45 | 1 | 33.1 | 29 | 66,290 | 0 | 0 | 0 | 0 | 34.88 | 0 | 2.14 | 5.52 | 5.79 |
| 16:44 | 1 | 33.1 | 29 | 66,276 | 0 | 0 | 0 | 0 | 23.48 | 0 | 1.43 | 4.44 | 4.88 |
| 16:43 | 1 | 33.1 | 29 | 66,256 | 0 | 0 | 0 | 1.32 | 33.11 | 0 | 1.43 | 4.43 | 4.88 |
| 16:42 | 1 | 33.1 | 29 | 66,258 | 0 | 0 | 0 | 1.32 | 30.43 | 0 | 2.14 | 5.52 | 6.07 |
| 16:41 | 1 | 33.1 | 29 | 66,260 | 0 | 0 | 0 | 1.01 | 24.29 | 0 | 1.43 | 4.97 | 5.47 |
| 16:39 | 1 | 33 | 30 | 66,268 | 0 | 0 | 0 | 1.99 | 29.83 | 0 | 2.14 | 5.5 | 6.05 |